Time,TemperatureF,DewpointF,PressureIn,WindDirection,WindDirectionDegrees,WindSpeedMPH,WindSpeedGustMPH,Humidity,HourlyPrecipIn,Conditions,Clouds,dailyrainin,SoftwareType,DateUTC
2013-02-20 00:00:00,20.0,17.0,-100.00,North,-999,-999.0,-999.0,88,0.00,,,-99.99,,2013-02-20 08:00:00,
2013-02-20 00:22:00,20.0,17.0,-100.00,North,-999,-999.0,-999.0,88,0.00,,,-99.99,,2013-02-20 08:22:00,
2013-02-20 00:32:00,20.0,17.0,-100.00,North,-999,-999.0,-999.0,88,0.00,,,-99.99,,2013-02-20 08:32:00,
2013-02-20 00:42:00,20.0,17.0,-100.00,North,-999,-999.0,-999.0,88,0.00,,,-99.99,,2013-02-20 08:42:00,
2013-02-20 00:52:00,20.0,17.0,-100.00,North,-999,-999.0,-999.0,88,0.00,,,-99.99,,2013-02-20 08:52:00,
2013-02-20 01:00:00,21.0,18.0,-100.00,North,-999,-999.0,-999.0,87,0.00,,,-99.99,,2013-02-20 09:00:00,
2013-02-20 01:21:00,21.0,18.0,-100.00,North,-999,-999.0,-999.0,87,0.00,,,-99.99,,2013-02-20 09:21:00,
2013-02-20 01:32:00,21.0,18.0,-100.00,North,-999,-999.0,-999.0,87,0.00,,,-99.99,,2013-02-20 09:32:00,
2013-02-20 01:42:00,21.0,18.0,-100.00,North,-999,-999.0,-999.0,87,0.00,,,-99.99,,2013-02-20 09:42:00,
2013-02-20 01:52:00,21.0,18.0,-100.00,North,-999,-999.0,-999.0,87,0.00,,,-99.99,,2013-02-20 09:52:00,
2013-02-20 02:00:00,22.0,18.0,-100.00,North,-999,-999.0,-999.0,84,0.00,,,-99.99,,2013-02-20 10:00:00,
2013-02-20 02:22:00,22.0,18.0,-100.00,North,-999,-999.0,-999.0,84,0.00,,,-99.99,,2013-02-20 10:22:00,
2013-02-20 02:32:00,22.0,18.0,-100.00,North,-999,-999.0,-999.0,84,0.00,,,-99.99,,2013-02-20 10:32:00,
2013-02-20 02:42:00,22.0,18.0,-100.00,North,-999,-999.0,-999.0,84,0.00,,,-99.99,,2013-02-20 10:42:00,
2013-02-20 02:52:00,22.0,18.0,-100.00,North,-999,-999.0,-999.0,84,0.00,,,-99.99,,2013-02-20 10:52:00,
2013-02-20 03:00:00,22.0,17.0,-100.00,North,-999,-999.0,-999.0,82,0.00,,,-99.99,,2013-02-20 11:00:00,
2013-02-20 03:22:00,22.0,17.0,-100.00,North,-999,-999.0,-999.0,82,0.00,,,-99.99,,2013-02-20 11:22:00,
2013-02-20 03:32:00,22.0,17.0,-100.00,North,-999,-999.0,-999.0,82,0.00,,,-99.99,,2013-02-20 11:32:00,
2013-02-20 03:42:00,22.0,17.0,-100.00,North,-999,-999.0,-999.0,82,0.00,,,-99.99,,2013-02-20 11:42:00,
2013-02-20 03:52:00,22.0,17.0,-100.00,North,-999,-999.0,-999.0,82,0.00,,,-99.99,,2013-02-20 11:52:00,
2013-02-20 04:00:00,22.0,17.0,-100.00,North,-999,-999.0,-999.0,80,0.00,,,-99.99,,2013-02-20 12:00:00,
2013-02-20 04:22:00,22.0,17.0,-100.00,North,-999,-999.0,-999.0,80,0.00,,,-99.99,,2013-02-20 12:22:00,
2013-02-20 04:32:00,22.0,17.0,-100.00,North,-999,-999.0,-999.0,80,0.00,,,-99.99,,2013-02-20 12:32:00,
2013-02-20 04:42:00,22.0,17.0,-100.00,North,-999,-999.0,-999.0,80,0.00,,,-99.99,,2013-02-20 12:42:00,
2013-02-20 04:52:00,22.0,17.0,-100.00,North,-999,-999.0,-999.0,80,0.00,,,-99.99,,2013-02-20 12:52:00,
2013-02-20 05:00:00,21.0,15.0,-100.00,North,-999,-999.0,-999.0,78,0.00,,,-99.99,,2013-02-20 13:00:00,
2013-02-20 05:22:00,21.0,15.0,-100.00,North,-999,-999.0,-999.0,78,0.00,,,-99.99,,2013-02-20 13:22:00,
2013-02-20 05:32:00,21.0,15.0,-100.00,North,-999,-999.0,-999.0,78,0.00,,,-99.99,,2013-02-20 13:32:00,
2013-02-20 05:42:00,21.0,15.0,-100.00,North,-999,-999.0,-999.0,78,0.00,,,-99.99,,2013-02-20 13:42:00,
2013-02-20 05:51:00,21.0,15.0,-100.00,North,-999,-999.0,-999.0,78,0.00,,,-99.99,,2013-02-20 13:51:00,
2013-02-20 06:00:00,21.0,15.0,-100.00,North,-999,-999.0,-999.0,78,0.00,,,-99.99,,2013-02-20 14:00:00,
2013-02-20 06:22:00,21.0,15.0,-100.00,North,-999,-999.0,-999.0,78,0.00,,,-99.99,,2013-02-20 14:22:00,
2013-02-20 06:32:00,21.0,15.0,-100.00,North,-999,-999.0,-999.0,78,0.00,,,-99.99,,2013-02-20 14:32:00,
2013-02-20 06:42:00,21.0,15.0,-100.00,North,-999,-999.0,-999.0,78,0.00,,,-99.99,,2013-02-20 14:42:00,
2013-02-20 06:52:00,21.0,15.0,-100.00,North,-999,-999.0,-999.0,78,0.00,,,-99.99,,2013-02-20 14:52:00,
2013-02-20 07:00:00,21.0,15.0,-100.00,North,-999,-999.0,-999.0,77,0.00,,,-99.99,,2013-02-20 15:00:00,
2013-02-20 07:22:00,21.0,15.0,-100.00,North,-999,-999.0,-999.0,77,0.00,,,-99.99,,2013-02-20 15:22:00,
2013-02-20 07:32:00,21.0,15.0,-100.00,North,-999,-999.0,-999.0,77,0.00,,,-99.99,,2013-02-20 15:32:00,
2013-02-20 07:42:00,21.0,15.0,-100.00,North,-999,-999.0,-999.0,77,0.00,,,-99.99,,2013-02-20 15:42:00,
2013-02-20 07:52:00,21.0,15.0,-100.00,North,-999,-999.0,-999.0,77,0.00,,,-99.99,,2013-02-20 15:52:00,
2013-02-20 08:00:00,21.0,15.0,-100.00,North,-999,-999.0,-999.0,77,0.00,,,-99.99,,2013-02-20 16:00:00,
2013-02-20 08:22:00,21.0,15.0,-100.00,North,-999,-999.0,-999.0,77,0.00,,,-99.99,,2013-02-20 16:22:00,
2013-02-20 08:32:00,21.0,15.0,-100.00,North,-999,-999.0,-999.0,77,0.00,,,-99.99,,2013-02-20 16:32:00,
2013-02-20 08:42:00,21.0,15.0,-100.00,North,-999,-999.0,-999.0,77,0.00,,,-99.99,,2013-02-20 16:42:00,
2013-02-20 08:52:00,21.0,15.0,-100.00,North,-999,-999.0,-999.0,77,0.00,,,-99.99,,2013-02-20 16:52:00,
2013-02-20 09:00:00,21.0,15.0,-100.00,North,-999,-999.0,-999.0,76,0.00,,,-99.99,,2013-02-20 17:00:00,
2013-02-20 09:21:00,21.0,15.0,-100.00,North,-999,-999.0,-999.0,76,0.00,,,-99.99,,2013-02-20 17:21:00,
2013-02-20 09:32:00,21.0,15.0,-100.00,North,-999,-999.0,-999.0,76,0.00,,,-99.99,,2013-02-20 17:32:00,
2013-02-20 09:42:00,21.0,15.0,-100.00,North,-999,-999.0,-999.0,76,0.00,,,-99.99,,2013-02-20 17:42:00,
2013-02-20 09:52:00,21.0,15.0,-100.00,North,-999,-999.0,-999.0,76,0.00,,,-99.99,,2013-02-20 17:52:00,
2013-02-20 10:00:00,28.0,17.0,-100.00,North,-999,-999.0,-999.0,62,0.00,,,-99.99,,2013-02-20 18:00:00,
2013-02-20 10:22:00,28.0,17.0,-100.00,North,-999,-999.0,-999.0,62,0.00,,,-99.99,,2013-02-20 18:22:00,
2013-02-20 10:32:00,28.0,17.0,-100.00,North,-999,-999.0,-999.0,62,0.00,,,-99.99,,2013-02-20 18:32:00,
2013-02-20 10:42:00,28.0,17.0,-100.00,North,-999,-999.0,-999.0,62,0.00,,,-99.99,,2013-02-20 18:42:00,
2013-02-20 10:52:00,28.0,17.0,-100.00,North,-999,-999.0,-999.0,62,0.00,,,-99.99,,2013-02-20 18:52:00,
2013-02-20 11:00:00,31.0,18.0,-100.00,North,-999,-999.0,-999.0,57,0.00,,,-99.99,,2013-02-20 19:00:00,
2013-02-20 11:21:00,31.0,18.0,-100.00,North,-999,-999.0,-999.0,57,0.00,,,-99.99,,2013-02-20 19:21:00,
2013-02-20 11:32:00,31.0,18.0,-100.00,North,-999,-999.0,-999.0,57,0.00,,,-99.99,,2013-02-20 19:32:00,
2013-02-20 11:42:00,31.0,18.0,-100.00,North,-999,-999.0,-999.0,57,0.00,,,-99.99,,2013-02-20 19:42:00,
2013-02-20 11:52:00,31.0,18.0,-100.00,North,-999,-999.0,-999.0,57,0.00,,,-99.99,,2013-02-20 19:52:00,
2013-02-20 12:00:00,33.0,16.0,-100.00,North,-999,-999.0,-999.0,49,0.00,,,-99.99,,2013-02-20 20:00:00,
2013-02-20 12:21:00,33.0,16.0,-100.00,North,-999,-999.0,-999.0,49,0.00,,,-99.99,,2013-02-20 20:21:00,
2013-02-20 12:31:00,33.0,16.0,-100.00,North,-999,-999.0,-999.0,49,0.00,,,-99.99,,2013-02-20 20:31:00,
2013-02-20 12:41:00,33.0,16.0,-100.00,North,-999,-999.0,-999.0,49,0.00,,,-99.99,,2013-02-20 20:41:00,
2013-02-20 12:51:00,33.0,16.0,-100.00,North,-999,-999.0,-999.0,49,0.00,,,-99.99,,2013-02-20 20:51:00,
2013-02-20 13:00:00,36.0,14.0,-100.00,North,-999,-999.0,-999.0,40,0.00,,,-99.99,,2013-02-20 21:00:00,
2013-02-20 13:21:00,36.0,14.0,-100.00,North,-999,-999.0,-999.0,40,0.00,,,-99.99,,2013-02-20 21:21:00,
2013-02-20 13:32:00,36.0,14.0,-100.00,North,-999,-999.0,-999.0,40,0.00,,,-99.99,,2013-02-20 21:32:00,
2013-02-20 13:42:00,36.0,14.0,-100.00,North,-999,-999.0,-999.0,40,0.00,,,-99.99,,2013-02-20 21:42:00,
2013-02-20 13:52:00,36.0,14.0,-100.00,North,-999,-999.0,-999.0,40,0.00,,,-99.99,,2013-02-20 21:52:00,
2013-02-20 14:00:00,38.0,11.0,-100.00,North,-999,-999.0,-999.0,33,0.00,,,-99.99,,2013-02-20 22:00:00,
2013-02-20 14:21:00,38.0,11.0,-100.00,North,-999,-999.0,-999.0,33,0.00,,,-99.99,,2013-02-20 22:21:00,
2013-02-20 14:31:00,38.0,11.0,-100.00,North,-999,-999.0,-999.0,33,0.00,,,-99.99,,2013-02-20 22:31:00,
2013-02-20 14:43:00,38.0,11.0,-100.00,North,-999,-999.0,-999.0,33,0.00,,,-99.99,,2013-02-20 22:43:00,
2013-02-20 14:51:00,38.0,11.0,-100.00,North,-999,-999.0,-999.0,33,0.00,,,-99.99,,2013-02-20 22:51:00,
2013-02-20 15:00:00,39.0,9.0,-100.00,North,-999,-999.0,-999.0,28,0.00,,,-99.99,,2013-02-20 23:00:00,
2013-02-20 15:22:00,39.0,9.0,-100.00,North,-999,-999.0,-999.0,28,0.00,,,-99.99,,2013-02-20 23:22:00,
2013-02-20 15:32:00,39.0,9.0,-100.00,North,-999,-999.0,-999.0,28,0.00,,,-99.99,,2013-02-20 23:32:00,
2013-02-20 15:42:00,39.0,9.0,-100.00,North,-999,-999.0,-999.0,28,0.00,,,-99.99,,2013-02-20 23:42:00,
2013-02-20 15:52:00,39.0,9.0,-100.00,North,-999,-999.0,-999.0,28,0.00,,,-99.99,,2013-02-20 23:52:00,
2013-02-20 16:00:00,36.0,11.0,-100.00,North,-999,-999.0,-999.0,35,0.00,,,-99.99,,2013-02-21 00:00:00,
2013-02-20 16:22:00,36.0,11.0,-100.00,North,-999,-999.0,-999.0,35,0.00,,,-99.99,,2013-02-21 00:22:00,
2013-02-20 16:32:00,36.0,11.0,-100.00,North,-999,-999.0,-999.0,35,0.00,,,-99.99,,2013-02-21 00:32:00,
2013-02-20 16:42:00,36.0,11.0,-100.00,North,-999,-999.0,-999.0,35,0.00,,,-99.99,,2013-02-21 00:42:00,
2013-02-20 16:52:00,36.0,11.0,-100.00,North,-999,-999.0,-999.0,35,0.00,,,-99.99,,2013-02-21 00:52:00,
2013-02-20 17:00:00,33.0,24.0,-100.00,North,-999,-999.0,-999.0,69,0.00,,,-99.99,,2013-02-21 01:00:00,
2013-02-20 17:21:00,33.0,24.0,-100.00,North,-999,-999.0,-999.0,69,0.00,,,-99.99,,2013-02-21 01:21:00,
2013-02-20 17:32:00,33.0,24.0,-100.00,North,-999,-999.0,-999.0,69,0.00,,,-99.99,,2013-02-21 01:32:00,
2013-02-20 17:42:00,33.0,24.0,-100.00,North,-999,-999.0,-999.0,69,0.00,,,-99.99,,2013-02-21 01:42:00,
2013-02-20 17:52:00,33.0,24.0,-100.00,North,-999,-999.0,-999.0,69,0.00,,,-99.99,,2013-02-21 01:52:00,
2013-02-20 18:00:00,29.0,25.0,-100.00,North,-999,-999.0,-999.0,85,0.00,,,-99.99,,2013-02-21 02:00:00,
2013-02-20 18:22:00,29.0,25.0,-100.00,North,-999,-999.0,-999.0,85,0.00,,,-99.99,,2013-02-21 02:22:00,
2013-02-20 18:32:00,29.0,25.0,-100.00,North,-999,-999.0,-999.0,85,0.00,,,-99.99,,2013-02-21 02:32:00,
2013-02-20 18:42:00,29.0,25.0,-100.00,North,-999,-999.0,-999.0,85,0.00,,,-99.99,,2013-02-21 02:42:00,
2013-02-20 18:52:00,29.0,25.0,-100.00,North,-999,-999.0,-999.0,85,0.00,,,-99.99,,2013-02-21 02:52:00,
2013-02-20 19:00:00,27.0,25.0,-100.00,North,-999,-999.0,-999.0,92,0.00,,,-99.99,,2013-02-21 03:00:00,
2013-02-20 19:22:00,27.0,25.0,-100.00,North,-999,-999.0,-999.0,92,0.00,,,-99.99,,2013-02-21 03:22:00,
2013-02-20 19:32:00,27.0,25.0,-100.00,North,-999,-999.0,-999.0,92,0.00,,,-99.99,,2013-02-21 03:32:00,
2013-02-20 19:42:00,27.0,25.0,-100.00,North,-999,-999.0,-999.0,92,0.00,,,-99.99,,2013-02-21 03:42:00,
2013-02-20 19:52:00,27.0,25.0,-100.00,North,-999,-999.0,-999.0,92,0.00,,,-99.99,,2013-02-21 03:52:00,
2013-02-20 20:00:00,26.0,24.0,-100.00,North,-999,-999.0,-999.0,93,0.00,,,-99.99,,2013-02-21 04:00:00,
2013-02-20 20:22:00,26.0,24.0,-100.00,North,-999,-999.0,-999.0,93,0.00,,,-99.99,,2013-02-21 04:22:00,
2013-02-20 20:32:00,26.0,24.0,-100.00,North,-999,-999.0,-999.0,93,0.00,,,-99.99,,2013-02-21 04:32:00,
2013-02-20 20:42:00,26.0,24.0,-100.00,North,-999,-999.0,-999.0,93,0.00,,,-99.99,,2013-02-21 04:42:00,
2013-02-20 20:52:00,26.0,24.0,-100.00,North,-999,-999.0,-999.0,93,0.00,,,-99.99,,2013-02-21 04:52:00,
2013-02-20 21:00:00,26.0,24.0,-100.00,North,-999,-999.0,-999.0,93,0.00,,,-99.99,,2013-02-21 05:00:00,
2013-02-20 21:22:00,26.0,24.0,-100.00,North,-999,-999.0,-999.0,93,0.00,,,-99.99,,2013-02-21 05:22:00,
2013-02-20 21:37:00,26.0,24.0,-100.00,North,-999,-999.0,-999.0,93,0.00,,,-99.99,,2013-02-21 05:37:00,
2013-02-20 21:46:00,26.0,24.0,-100.00,North,-999,-999.0,-999.0,93,0.00,,,-99.99,,2013-02-21 05:46:00,
2013-02-20 21:58:00,26.0,24.0,-100.00,North,-999,-999.0,-999.0,93,0.00,,,-99.99,,2013-02-21 05:58:00,
2013-02-20 22:00:00,24.0,22.0,-100.00,North,-999,-999.0,-999.0,95,0.00,,,-99.99,,2013-02-21 06:00:00,
2013-02-20 22:21:00,24.0,22.0,-100.00,North,-999,-999.0,-999.0,95,0.00,,,-99.99,,2013-02-21 06:21:00,
2013-02-20 22:31:00,24.0,22.0,-100.00,North,-999,-999.0,-999.0,95,0.00,,,-99.99,,2013-02-21 06:31:00,
2013-02-20 22:41:00,24.0,22.0,-100.00,North,-999,-999.0,-999.0,95,0.00,,,-99.99,,2013-02-21 06:41:00,
2013-02-20 22:51:00,24.0,22.0,-100.00,North,-999,-999.0,-999.0,95,0.00,,,-99.99,,2013-02-21 06:51:00,
2013-02-20 23:00:00,24.0,22.0,-100.00,North,-999,-999.0,-999.0,91,0.00,,,-99.99,,2013-02-21 07:00:00,
2013-02-20 23:21:00,24.0,22.0,-100.00,North,-999,-999.0,-999.0,91,0.00,,,-99.99,,2013-02-21 07:21:00,
2013-02-20 23:32:00,24.0,22.0,-100.00,North,-999,-999.0,-999.0,91,0.00,,,-99.99,,2013-02-21 07:32:00,
2013-02-20 23:42:00,24.0,22.0,-100.00,North,-999,-999.0,-999.0,91,0.00,,,-99.99,,2013-02-21 07:42:00,
2013-02-20 23:52:00,24.0,22.0,-100.00,North,-999,-999.0,-999.0,91,0.00,,,-99.99,,2013-02-21 07:52:00,